Location: Robledo de Chavela
(40.5014°N, 4.2377°W)
Time: 10:04:41
(UTC+00:00)

Cosmos 1697 Rocket - Pass Details

Date: 18 April 2024
Orbit: 832 x 843 km, 71.0° (Epoch: 20 May)

Event Time Altitude Azimuth Distance (km) Brightness Sun altitude
Exits shadow 22:00:39 64° 262° (W) 933 2.9 -29.5°
Maximum altitude 22:01:10 68° 295° (WNW) 909 2.9 -29.6°
Drops below altitude 10° 22:06:49 10° 18° (NNE) 2,470 5.5 -30.2°
Sets 22:09:18 0° 22° (NNE) 3,408 6.2 -30.5°
